This is the latest recevied weather packets stored in our database for station/object W4MLN-3. If no packets are shown the sender has not sent any weather packets the latest 10 day(s).
| Time | Temp. | Humidity | Pressure | Rain* | Wind** | Luminosity | Snow |
|---|---|---|---|---|---|---|---|
| 1787931903 | 26.11° C | 66% | 1021.1 hPa | 0 mm | - | - | - |
| 1787931624 | 26.11° C | 66% | 1021.1 hPa | 0 mm | - | - | - |
| 1787931303 | 26.11° C | 63% | 1021.1 hPa | 0 mm | - | - | - |
| 1787931003 | 26.11° C | 64% | 1021.2 hPa | 0 mm | - | - | - |
| 1787930703 | 26.67° C | 63% | 1021.2 hPa | 0 mm | - | - | - |
| 1787930403 | 26.67° C | 62% | 1021.1 hPa | 0 mm | - | - | - |
| 1787930103 | 26.67° C | 66% | 1021.2 hPa | 0 mm | - | - | - |
| 1787929803 | 26.67° C | 64% | 1021.1 hPa | 0 mm | - | - | - |
| 1787929503 | 26.11° C | 64% | 1021.2 hPa | 0 mm | - | - | - |
| 1787929224 | 26.11° C | 66% | 1021.2 hPa | 0 mm | - | - | - |
| 1787928903 | 25.56° C | 65% | 1021.1 hPa | 0 mm | - | - | - |
| 1787928603 | 25.56° C | 68% | 1021.2 hPa | 0 mm | - | - | - |
| 1787928324 | 25° C | 68% | 1021.1 hPa | 0 mm | - | - | - |
| 1787928003 | 25° C | 67% | 1021.2 hPa | 0 mm | - | - | - |
| 1787927703 | 25° C | 69% | 1021 hPa | 0 mm | - | - | - |
| 1787927403 | 24.44° C | 71% | 1021 hPa | 0 mm | - | - | - |
| 1787927103 | 24.44° C | 73% | 1021 hPa | 0 mm | - | - | - |
| 1787926803 | 24.44° C | 72% | 1021.1 hPa | 0 mm | - | - | - |
| 1787926503 | 24.44° C | 71% | 1021.1 hPa | 0 mm | - | - | - |
| 1787926246 | 24.44° C | 71% | 1021 hPa | 0 mm | - | - | - |
| 1787925924 | 24.44° C | 73% | 1021 hPa | 0 mm | - | - | - |
| 1787925603 | 23.89° C | 77% | 1021 hPa | 0 mm | - | - | - |
| 1787925303 | 23.89° C | 77% | 1021 hPa | 0 mm | - | - | - |
| 1787925003 | 23.33° C | 78% | 1021 hPa | 0 mm | - | - | - |
| 1787924703 | 22.78° C | 80% | 1020.9 hPa | 0 mm | - | - | - |
* Rain latest hour (hover to see other rain measurements)
** Current wind speed in m/s (hover to see current wind gust speed)